Flag for U.S.A. Weather past 2 weeks in Metlakatla, Alaska, U.S.A.

Now
50 °F

Passing clouds.


Feels Like: 48 °F
Forecast: 42 / 50 °F
Wind: 6 mph from West

Location: Metlakatla - Metlakatla Seaplane Base

Current Time: Sep 30, 2014 at 10:54:31 PM

Latest Report: Sep 30, 2014 at 10:36 PM


Visibility: 10 mi

Pressure: 30.07 "Hg

Humidity: 76%

Dew point: 43 °F

Location of MetlakatlaLocation

Historic Weather in Metlakatla — Graph

°F

Metlakatla temperature yesterday

Maximum temperature yesterday: 57 °F (at 11:56 AM)
Minimum temperature yesterday: 50 °F (at 7:56 AM)
Average temperature yesterday: 54 °F

Past Weeks' High & Low Weather Summary

 TemperatureHumidityPressure
High66 °F (Sep 21, 8:36 AM)100% (Sep 16, 9:56 AM)30.06 "Hg (Sep 16, 9:56 AM)
Low48 °F (Sep 22, 10:56 PM)59% (Sep 25, 6:36 AM)29.39 "Hg (Sep 18, 2:56 PM)
Average55 °F86%29.77 "Hg
* Reported Sep 15 9:16 PM — Sep 30 9:36 PM, Metlakatla, Weather by CustomWeather, © 2014

Note: Actual official high and low records may vary slightly from our data, if they occured in-between our weather recording intervals... More about our weather records

Advertising

Metlakatla weather history for previous 24 hours

 ConditionsComfort  
Time TempWeatherWind HumidityBarometerVisibility
9:36 PM
Sep 30
52 °FMostly cloudy.9 mph72%30.06 "Hg10 mi
9:16 PM52 °FPartly cloudy.9 mph72%30.06 "Hg10 mi
8:56 PM52 °FPartly cloudy.6 mph72%30.06 "Hg10 mi
8:36 PM52 °FPartly cloudy.7 mph72%30.06 "Hg10 mi
8:16 PM52 °FPassing clouds.9 mph72%30.06 "Hg10 mi
7:56 PM50 °FPassing clouds.5 mph76%30.06 "Hg10 mi
7:36 PM50 °FPassing clouds.3 mph76%30.06 "Hg10 mi
7:16 PM52 °FMostly cloudy.5 mph72%30.05 "Hg10 mi
6:36 PM52 °FMore clouds than sun.9 mph72%30.04 "Hg10 mi
6:16 PM52 °FMostly cloudy.9 mph72%30.04 "Hg10 mi
5:56 PM54 °FOvercast.3 mph77%30.04 "Hg10 mi
5:36 PM54 °FMostly cloudy.6 mph72%30.04 "Hg10 mi
5:16 PM54 °FScattered clouds.7 mph72%30.04 "Hg10 mi
4:56 PM54 °FPartly sunny.9 mph72%30.04 "Hg10 mi
4:36 PM54 °FScattered clouds.8 mph77%30.05 "Hg10 mi
3:56 PM54 °FOvercast.8 mph77%30.04 "Hg10 mi
3:36 PM52 °FOvercast.7 mph82%30.05 "Hg10 mi
3:16 PM52 °FOvercast.5 mph82%30.05 "Hg10 mi
2:56 PM52 °FMostly cloudy.7 mph82%30.05 "Hg9 mi
2:36 PM54 °FPartly sunny.13 mph77%30.05 "Hg10 mi
2:16 PM54 °FMostly cloudy.12 mph77%30.05 "Hg10 mi
1:56 PM54 °FMore clouds than sun.18 mph77%30.04 "Hg9 mi
1:36 PM55 °FBroken clouds.20 mph72%30.03 "Hg10 mi
12:36 PM55 °FMore clouds than sun.8 mph77%30.02 "Hg10 mi
12:16 PM55 °FOvercast.8 mph77%30.01 "Hg10 mi
11:56 AM54 °FMostly cloudy.8 mph82%30.01 "Hg10 mi
11:36 AM54 °FMostly cloudy.9 mph82%30.00 "Hg10 mi
11:16 AM54 °FMostly cloudy.20 mph82%29.99 "Hg10 mi
10:56 AM55 °FMostly cloudy.5 mph77%29.99 "Hg10 mi
10:36 AM55 °FPartly sunny.8 mph77%29.99 "Hg10 mi
9:56 AM55 °FOvercast.9 mph82%29.98 "Hg10 mi
9:36 AM54 °FOvercast.3 mph82%29.97 "Hg10 mi
9:16 AM54 °FOvercast.6 mph82%29.97 "Hg10 mi
8:56 AM52 °FOvercast.5 mph88%29.97 "Hg10 mi
8:36 AM52 °FMore clouds than sun.3 mph88%29.97 "Hg10 mi
8:16 AM52 °FCloudy.5 mph88%29.98 "Hg10 mi
7:56 AM52 °FMore clouds than sun.5 mph88%29.98 "Hg10 mi
7:36 AM52 °FMostly cloudy.6 mph88%29.97 "Hg10 mi
7:16 AM52 °FOvercast.6 mph94%29.96 "Hg10 mi
6:56 AM52 °FOvercast.3 mph94%29.96 "Hg10 mi
6:36 AM52 °FMostly cloudy.5 mph88%29.96 "Hg10 mi
6:16 AM52 °FMostly cloudy.3 mph88%29.96 "Hg10 mi
5:56 AM52 °FLow clouds.No wind94%29.95 "Hg10 mi
5:36 AM52 °FOvercast.No wind94%29.95 "Hg10 mi
5:16 AM52 °FMostly cloudy.No wind94%29.95 "Hg10 mi
4:56 AM52 °FMostly cloudy.No wind94%29.95 "Hg10 mi
4:36 AM52 °FMostly cloudy.No wind94%29.94 "Hg10 mi
4:16 AM52 °FMostly cloudy.No wind94%29.93 "Hg10 mi
3:56 AM52 °FMostly cloudy.No wind94%29.93 "Hg8 mi
3:36 AM52 °FMostly cloudy.No wind94%29.93 "Hg10 mi
3:16 AM52 °FOvercast.No wind94%29.92 "Hg10 mi
2:56 AM52 °FOvercast.No wind94%29.92 "Hg10 mi
2:36 AM52 °FMostly cloudy.No wind88%29.92 "Hg10 mi
2:16 AM52 °FMostly cloudy.No wind88%29.91 "Hg10 mi
1:56 AM52 °FMostly cloudy.No wind88%29.91 "Hg10 mi
1:36 AM52 °FMostly cloudy.No wind88%29.90 "Hg10 mi
1:16 AM52 °FMostly cloudy.No wind88%29.90 "Hg10 mi
12:56 AM52 °FMostly cloudy.No wind88%29.89 "Hg10 mi
12:36 AM52 °FPartly cloudy.No wind88%29.89 "Hg10 mi
12:16 AM52 °FOvercast.No wind88%29.88 "Hg10 mi
11:56 PM
Sep 29
52 °FOvercast.No wind88%29.88 "Hg10 mi
11:36 PM52 °FOvercast.No wind88%29.87 "Hg10 mi
11:16 PM52 °FOvercast.No wind88%29.87 "Hg10 mi
10:56 PM52 °FOvercast.3 mph94%29.86 "Hg10 mi
10:36 PM52 °FOvercast.No wind94%29.86 "Hg10 mi
10:16 PM52 °FOvercast.No wind94%29.85 "Hg10 mi
Weather by CustomWeather, © 2014

See weather overviewHow to use our weather pages